User: anonymous   Login
Location: Azat
(46.0765°N, 1.7600°E)
Time: 14:38:53
(UTC+00:00)
Language:

FALCON 9 DEB - Orbit

View from above orbital plane
View from above orbital plane
View from above satellite
View from above satellite

Ground track
Ground track

The orbit data is extracted from the following two-line orbital elements,

1 44295U 19029BN  21162.83685503  .00002467  00000-0  58309-4 0  9993
2 44295  52.9995 207.1739 0009410 132.9939 227.1856 15.46097320117045
Epoch (UTC): 11 June 2021 20:05:04
Eccentricity: 0.0009410
inclination: 52.9995°
perigee height: 422 km
apogee height: 434 km
right ascension of ascending node: 207.1739°
argument of perigee: 132.9939°
revolutions per day: 15.46097320
mean anomaly at epoch: 227.1856°
orbit number at epoch: 11704

The dashed part of the orbit path shows where the satellite is in the earth's shadow,  

DLR